GW6919 Weather Reports


time (UTC)temp
C
wind
direction
speed
KPH
gust
KPH
rain 1hr
cm
rain 24hr
cm
rain mn
cm
humidity
%
barometer
mb
20260505170243 14 11 0.0 1.6 0.00 0.00 0.00 80 1016.0
20260505165738 14 276 0.0 1.6 0.00 0.00 0.00 81 1016.0
20260505165234 13 258 0.0 3.2 0.00 0.00 0.00 83 1015.9
20260505164730 14 233 1.6 4.8 0.00 0.00 0.00 83 1015.9
20260505164227 13 269 0.0 1.6 0.00 0.00 0.00 83 1015.9
20260505163725 13 289 0.0 3.2 0.00 0.00 0.00 83 1016.0
20260505163223 13 232 1.6 1.6 0.00 0.00 0.00 83 1015.8
20260505162720 13 253 0.0 1.6 0.00 0.00 0.00 83 1015.8
20260505162218 13 223 1.6 3.2 0.00 0.00 0.00 83 1016.0
20260505161714 13 296 0.0 3.2 0.00 0.00 0.00 84 1015.9
20260505161212 13 219 0.0 3.2 0.00 0.00 0.00 84 1015.8
20260505160709 13 4 1.6 1.6 0.00 0.00 0.00 85 1015.9
20260505160207 13 226 0.0 0.0 0.00 0.00 0.00 85 1016.0
20260505153146 13 229 0.0 3.2 0.00 0.00 0.00 86 1015.7
20260505152643 12 258 0.0 0.0 0.00 0.00 0.00 86 1015.8
20260505152139 12 229 0.0 1.6 0.00 0.00 0.00 86 1015.8
20260505151634 12 249 0.0 0.0 0.00 0.00 0.00 87 1015.7
20260505151131 12 245 0.0 1.6 0.00 0.00 0.00 87 1015.7
20260505150627 12 250 0.0 4.8 0.00 0.00 0.00 87 1015.8
20260505150124 12 209 3.2 3.2 0.00 0.00 0.00 86 1015.6
20260505140553 12 268 1.6 1.6 0.00 0.00 0.00 86 1015.3
20260505125006 12 149 0.0 0.0 0.00 0.00 0.00 88 1014.8
20260505124503 12 149 0.0 0.0 0.00 0.00 0.00 88 1014.6
20260505123959 12 149 0.0 0.0 0.00 0.00 0.00 88 1014.7
20260505123456 12 149 0.0 0.0 0.00 0.00 0.00 88 1014.6
20260505122952 12 149 0.0 0.0 0.00 0.00 0.00 88 1014.6
20260505122449 12 149 0.0 0.0 0.00 0.00 0.00 88 1014.6
20260505121946 12 149 0.0 0.0 0.00 0.00 0.00 88 1014.5
20260505121443 12 149 0.0 0.0 0.00 0.00 0.00 88 1014.7
20260505120938 12 149 0.0 0.0 0.00 0.00 0.00 88 1014.8
20260505120435 12 149 0.0 0.0 0.00 0.00 0.00 88 1014.5
20260505115934 12 149 0.0 0.0 0.00 0.00 0.00 88 1014.7
20260505115431 12 149 0.0 0.0 0.00 0.00 0.00 88 1014.6
20260505114929 12 150 0.0 0.0 0.00 0.00 0.00 88 1014.7
20260505114425 12 150 0.0 0.0 0.00 0.00 0.00 88 1014.5
20260505113921 12 149 0.0 0.0 0.00 0.00 0.00 88 1014.4
20260505113418 12 153 0.0 0.0 0.00 0.00 0.00 88 1014.5
20260505112914 12 153 0.0 0.0 0.00 0.00 0.00 88 1014.4
20260505112412 12 153 0.0 0.0 0.00 0.00 0.00 88 1014.5
20260505111908 12 155 0.0 1.6 0.00 0.00 0.00 88 1014.4
20260505111402 12 159 1.6 1.6 0.00 0.00 0.00 88 1014.6
20260505110859 12 160 0.0 0.0 0.00 0.00 0.00 88 1014.6
20260505110356 12 166 0.0 1.6 0.00 0.00 0.00 88 1014.5
20260505101827 12 162 0.0 1.6 0.00 0.00 0.00 88 1014.1
20260505101322 12 199 0.0 1.6 0.00 0.00 0.00 87 1014.3
20260505100818 12 213 0.0 0.0 0.00 0.00 0.00 87 1014.0
20260505100315 12 204 0.0 0.0 0.00 0.00 0.00 87 1014.3
20260505095810 12 195 0.0 1.6 0.00 0.00 0.00 87 1014.3
20260505095308 12 179 0.0 0.0 0.00 0.00 0.00 87 1014.1
20260505094804 12 202 0.0 0.0 0.00 0.00 0.00 87 1014.1
20260505094301 12 174 0.0 1.6 0.00 0.00 0.00 87 1013.9
20260505093756 12 178 0.0 1.6 0.00 0.00 0.00 87 1014.0
20260505093254 12 181 1.6 1.6 0.00 0.00 0.00 87 1013.9
20260505092751 13 185 0.0 1.6 0.00 0.00 0.00 87 1014.0
20260505092249 13 196 0.0 1.6 0.00 0.00 0.00 86 1014.2
20260505091746 13 204 0.0 1.6 0.00 0.00 0.00 86 1014.0
20260505091244 13 335 0.0 1.6 0.00 0.00 0.00 86 1013.8
20260505090742 12 285 0.0 1.6 0.00 0.00 0.00 87 1013.9
20260505090240 13 288 0.0 0.0 0.00 0.00 0.00 86 1014.0
20260505085737 13 289 0.0 0.0 0.00 0.00 0.00 86 1013.8
20260505085235 12 303 0.0 1.6 0.00 0.00 0.00 86 1013.7
20260505084732 13 205 0.0 0.0 0.00 0.00 0.00 86 1013.7
20260505084231 13 93 1.6 1.6 0.00 0.00 0.00 86 1013.7
20260505083728 13 201 0.0 0.0 0.00 0.00 0.00 85 1013.8
20260505083224 13 203 0.0 0.0 0.00 0.00 0.00 85 1013.6
20260505082720 13 190 0.0 0.0 0.00 0.00 0.00 85 1013.5
20260505082218 13 193 0.0 1.6 0.00 0.00 0.00 85 1013.4
20260505081713 13 191 0.0 1.6 0.00 0.00 0.00 85 1013.7
20260505081211 13 208 0.0 1.6 0.00 0.00 0.00 85 1013.6
20260505080708 13 189 0.0 1.6 0.00 0.00 0.00 85 1013.6
20260505080204 13 203 0.0 1.6 0.00 0.00 0.00 85 1013.6
20260505075700 13 154 1.6 3.2 0.00 0.00 0.00 85 1013.5
20260505075157 13 199 0.0 1.6 0.00 0.00 0.00 84 1013.6
20260505074654 13 177 0.0 1.6 0.00 0.00 0.00 84 1013.5
20260505074151 13 182 0.0 1.6 0.00 0.00 0.00 84 1013.4
20260505073648 13 161 0.0 3.2 0.00 0.00 0.00 84 1013.1
20260505073146 13 165 0.0 1.6 0.00 0.00 0.00 84 1013.2
20260505072641 13 156 0.0 1.6 0.00 0.00 0.00 83 1013.2
20260505072138 13 158 0.0 1.6 0.00 0.00 0.00 83 1013.2
20260505071634 13 142 1.6 3.2 0.00 0.00 0.00 83 1013.1
20260505071132 13 182 0.0 1.6 0.00 0.00 0.00 82 1012.9
20260505070629 14 147 0.0 1.6 0.00 0.00 0.00 82 1012.8
20260505070125 14 153 0.0 1.6 0.00 0.00 0.00 81 1012.9
20260505065621 14 151 0.0 0.0 0.00 0.00 0.00 81 1012.7
20260505065118 14 146 0.0 1.6 0.00 0.00 0.00 81 1012.5
20260505064615 15 146 0.0 0.0 0.00 0.00 0.00 80 1012.6
20260505064114 15 159 0.0 1.6 0.00 0.00 0.00 79 1012.4
20260505063610 15 159 0.0 0.0 0.00 0.00 0.00 79 1012.3
20260505063106 15 162 0.0 1.6 0.00 0.00 0.00 79 1012.5
20260505062603 15 150 1.6 1.6 0.00 0.00 0.00 78 1012.2
20260505062100 15 164 0.0 1.6 0.00 0.00 0.00 78 1012.3
20260505061557 15 171 1.6 1.6 0.00 0.00 0.00 78 1012.2
20260505061055 15 174 0.0 1.6 0.00 0.00 0.00 77 1012.1
20260505060553 15 184 0.0 1.6 0.00 0.00 0.00 77 1012.2
20260505060049 16 176 0.0 0.0 0.00 0.00 0.00 76 1012.1
20260505055544 16 234 0.0 1.6 0.00 0.00 0.00 75 1012.1
20260505055041 16 197 0.0 1.6 0.00 0.00 0.00 74 1012.0
20260505054539 16 108 1.6 1.6 0.00 0.00 0.00 74 1011.9
20260505054037 16 198 0.0 1.6 0.00 0.00 0.00 74 1012.0
20260505053533 16 274 0.0 0.0 0.00 0.00 0.00 73 1011.9
20260505053030 17 136 1.6 3.2 0.00 0.00 0.00 72 1011.8
20260505052527 17 171 1.6 3.2 0.00 0.00 0.00 72 1011.8
20260505052025 17 195 0.0 1.6 0.00 0.00 0.00 71 1012.0
20260505051521 17 159 0.0 1.6 0.00 0.00 0.00 71 1011.8
20260505051020 17 141 0.0 3.2 0.00 0.00 0.00 71 1012.0
20260505050517 17 165 1.6 1.6 0.00 0.00 0.00 70 1011.8
20260505041445 20 194 0.0 1.6 0.00 0.00 0.00 65 1011.2
20260505040942 20 169 1.6 1.6 0.00 0.00 0.00 65 1011.0
20260505040440 20 196 0.0 1.6 0.00 0.00 0.00 66 1011.1
20260505035936 20 197 0.0 0.0 0.00 0.00 0.00 67 1010.9
20260505035432 20 193 0.0 1.6 0.00 0.00 0.00 71 1010.8
20260505034930 20 194 0.0 0.0 0.00 0.00 0.00 70 1010.8
20260505034426 20 176 0.0 0.0 0.00 0.00 0.00 71 1010.6
20260505033923 20 197 1.6 1.6 0.00 0.00 0.00 70 1010.5
20260505033420 20 237 0.0 0.0 0.00 0.00 0.00 73 1010.4
20260505032918 20 229 0.0 1.6 0.00 0.00 0.00 73 1010.4
20260505032415 20 231 0.0 1.6 0.00 0.00 0.00 73 1010.1
20260505031911 20 230 0.0 0.0 0.00 0.00 0.00 72 1010.2
20260505031408 20 231 0.0 1.6 0.00 0.00 0.00 73 1010.0
20260505030905 20 231 0.0 0.0 0.00 0.00 0.00 72 1009.9
20260505030401 20 228 0.0 0.0 0.00 0.00 0.00 71 1009.9
20260505025856 20 228 0.0 1.6 0.00 0.00 0.00 70 1009.9
20260505025354 21 233 0.0 0.0 0.00 0.00 0.00 69 1009.9
20260505024853 21 233 0.0 0.0 0.00 0.00 0.00 70 1009.8
20260505024350 21 242 0.0 1.6 0.00 0.00 0.00 70 1009.8
20260505023847 21 252 0.0 0.0 0.00 0.00 0.00 70 1009.8
20260505023344 21 252 0.0 3.2 0.00 0.00 0.00 68 1009.9
20260505022841 21 204 3.2 4.8 0.00 0.00 0.00 66 1009.9
20260505022338 22 184 1.6 3.2 0.00 0.00 0.00 65 1009.8
20260505021836 22 217 0.0 1.6 0.00 0.00 0.00 65 1009.8
20260505021332 22 296 1.6 4.8 0.00 0.00 0.00 64 1009.8
20260505020828 22 221 3.2 3.2 0.00 0.00 0.00 64 1009.8
20260505020324 22 204 4.8 4.8 0.00 0.00 0.00 63 1009.9
20260505015821 22 268 3.2 8.0 0.00 0.00 0.00 63 1009.9
20260505015318 22 240 1.6 3.2 0.00 0.00 0.00 62 1009.8
20260505014815 22 230 1.6 4.8 0.00 0.00 0.00 62 1010.0
20260505014312 22 324 1.6 8.0 0.00 0.00 0.00 61 1009.9
20260505013808 22 209 1.6 1.6 0.00 0.00 0.00 61 1009.8
20260505013306 22 212 1.6 4.8 0.00 0.00 0.00 60 1010.0
20260505012804 22 293 3.2 8.0 0.00 0.00 0.00 60 1010.0
20260505012301 23 196 1.6 3.2 0.00 0.00 0.00 59 1010.0
20260505011757 23 267 1.6 4.8 0.00 0.00 0.00 58 1010.0
20260505011254 23 268 1.6 3.2 0.00 0.00 0.00 59 1010.0
20260505010750 24 303 1.6 4.8 0.00 0.00 0.00 56 1009.9
20260505010246 24 291 3.2 4.8 0.00 0.00 0.00 55 1010.0
20260505005743 25 236 0.0 3.2 0.00 0.00 0.00 53 1010.2
20260505005240 25 207 4.8 4.8 0.00 0.00 0.00 53 1010.0
20260505004737 25 235 1.6 3.2 0.00 0.00 0.00 52 1010.0
20260505004233 25 281 1.6 1.6 0.00 0.00 0.00 52 1010.0
20260505003730 25 217 4.8 4.8 0.00 0.00 0.00 52 1010.4
20260505003228 26 271 0.0 3.2 0.00 0.00 0.00 50 1010.2
20260505002724 25 253 0.0 1.6 0.00 0.00 0.00 50 1010.1
20260504224600 23 252 0.0 4.8 0.00 0.00 0.00 54 1011.0
20260504224057 23 252 0.0 4.8 0.00 0.00 0.00 54 1011.0
20260504223554 23 239 0.0 1.6 0.00 0.00 0.00 56 1010.8
20260504223050 23 211 1.6 4.8 0.00 0.00 0.00 56 1011.1
20260504222547 22 306 1.6 11.3 0.00 0.00 0.00 56 1011.2
20260504222044 23 251 0.0 1.6 0.00 0.00 0.00 54 1011.4
20260504221542 23 265 3.2 8.0 0.00 0.00 0.00 54 1011.3
20260504221038 23 49 0.0 1.6 0.00 0.00 0.00 54 1011.4
20260504220535 22 231 1.6 3.2 0.00 0.00 0.00 56 1011.5
20260504220032 22 292 1.6 4.8 0.00 0.00 0.00 57 1011.4
20260504215528 22 260 3.2 4.8 0.00 0.00 0.00 58 1011.5
20260504215026 22 254 3.2 8.0 0.00 0.00 0.00 58 1011.6
20260504214522 22 328 4.8 4.8 0.00 0.00 0.00 57 1011.7
20260504214018 22 25 1.6 4.8 0.00 0.00 0.00 58 1011.7
20260504213514 21 54 0.0 8.0 0.00 0.00 0.00 59 1011.7
20260504213012 21 249 1.6 3.2 0.00 0.00 0.00 59 1011.5
20260504212508 21 242 6.4 9.7 0.00 0.00 0.00 60 1011.7
20260504212005 20 293 1.6 3.2 0.00 0.00 0.00 62 1012.0
20260504211502 20 293 1.6 3.2 0.00 0.00 0.00 62 1012.0
20260504210959 20 216 3.2 8.0 0.00 0.00 0.00 62 1012.0
20260504210456 20 288 4.8 4.8 0.00 0.00 0.00 63 1012.1
20260504205953 20 219 6.4 8.0 0.00 0.00 0.00 61 1012.2
20260504205450 20 262 4.8 4.8 0.00 0.00 0.00 62 1012.3
20260504204948 20 220 1.6 4.8 0.00 0.00 0.00 62 1012.3
20260504204446 20 289 1.6 8.0 0.00 0.00 0.00 63 1012.4
20260504203945 21 235 4.8 8.0 0.00 0.00 0.00 61 1012.6
20260504203442 20 250 1.6 4.8 0.00 0.00 0.00 62 1012.8
20260504202938 20 259 0.0 8.0 0.00 0.00 0.00 62 1012.7
20260504202435 19 252 0.0 3.2 0.00 0.00 0.00 65 1012.7
20260504201932 18 196 3.2 4.8 0.00 0.00 0.00 65 1012.6
20260504201429 19 234 8.0 11.3 0.00 0.00 0.00 66 1012.8
20260504200927 18 234 4.8 8.0 0.00 0.00 0.00 66 1012.8
20260504200423 19 295 3.2 8.0 0.00 0.00 0.00 66 1012.8
20260504195920 19 218 1.6 8.0 0.00 0.00 0.00 66 1013.0
20260504195416 18 216 1.6 1.6 0.00 0.00 0.00 67 1013.0
20260504194913 18 17 1.6 3.2 0.00 0.00 0.00 67 1012.8
20260504194408 18 234 4.8 8.0 0.00 0.00 0.00 67 1012.8
20260504193905 18 234 1.6 3.2 0.00 0.00 0.00 68 1013.0
20260504193402 18 271 0.0 3.2 0.00 0.00 0.00 68 1013.0
20260504192901 18 302 0.0 4.8 0.00 0.00 0.00 67 1012.9
20260504192358 18 76 1.6 4.8 0.00 0.00 0.00 68 1012.9
20260504191856 18 262 1.6 1.6 0.00 0.00 0.00 69 1013.1
20260504191354 18 292 3.2 4.8 0.00 0.00 0.00 68 1013.1
20260504190849 17 264 0.0 3.2 0.00 0.00 0.00 69 1013.2
20260504190345 17 254 0.0 4.8 0.00 0.00 0.00 72 1013.2
20260504185842 17 251 1.6 4.8 0.00 0.00 0.00 72 1013.2
20260504185339 17 238 1.6 3.2 0.00 0.00 0.00 72 1013.1
20260504184835 17 242 3.2 14.5 0.00 0.00 0.00 74 1013.3
20260504184331 16 343 1.6 3.2 0.00 0.00 0.00 73 1013.3
20260504183827 16 91 1.6 3.2 0.00 0.00 0.00 74 1013.4
20260504183324 16 247 1.6 3.2 0.00 0.00 0.00 75 1013.4
20260504182822 16 276 1.6 4.8 0.00 0.00 0.00 75 1013.3
20260504182319 15 223 0.0 3.2 0.00 0.00 0.00 77 1013.2
20260504181816 16 292 4.8 4.8 0.00 0.00 0.00 76 1013.4
20260504181314 15 261 0.0 1.6 0.00 0.00 0.00 76 1013.4
20260504180812 15 266 0.0 4.8 0.00 0.00 0.00 79 1013.3
20260504180310 15 236 1.6 3.2 0.00 0.00 0.00 79 1013.3
20260504175808 15 285 1.6 4.8 0.00 0.00 0.00 79 1013.2
20260504175305 15 234 1.6 4.8 0.00 0.00 0.00 79 1013.4
20260504174803 15 212 4.8 4.8 0.00 0.00 0.00 80 1013.3
20260504174300 15 236 1.6 4.8 0.00 0.00 0.00 79 1013.4
20260504173757 15 232 1.6 3.2 0.00 0.00 0.00 80 1013.5
20260504173254 15 246 0.0 3.2 0.00 0.00 0.00 80 1013.4
20260504172750 15 233 3.2 4.8 0.00 0.00 0.00 80 1013.4
20260504172247 14 265 1.6 8.0 0.00 0.00 0.00 81 1013.2
20260504171743 15 320 0.0 4.8 0.00 0.00 0.00 80 1013.4
20260504171240 14 261 0.0 8.0 0.00 0.00 0.00 81 1013.3
20260504170737 14 246 4.8 4.8 0.00 0.00 0.00 80 1013.3